Mora, MN

5:15 PM CDT on July 25, 2017 (GMT -0500)
Mora Municipal

Weather History for KJMR - January, 2013

Change the Weather History Date:

Saturday, January 12, 2013

  Actual Average Record
Temperature  
Mean Temperature 20 °F -  
Max Temperature 35 °F 18 °F 43 °F (1958)
Min Temperature 6 °F -5 °F -37 °F (1977)
Degree Days  
Heating Degree Days 44    
Moisture  
Dew Point 11 °F    
Average Humidity 78    
Maximum Humidity 100    
Minimum Humidity 67    
Precipitation  
Precipitation 0.00 in - - ()
Sea Level Pressure  
Sea Level Pressure 29.76 in    
Wind  
Wind Speed 11 mph (WSW)    
Max Wind Speed 17 mph    
Max Gust Speed 25 mph    
Visibility 9 miles    
Events Snow    
Averages and records for this station are not official NWS values.
T = Trace of Precipitation, MM = Missing Value Source: NWS Daily Summary

Daily Weather History Graph

Daily Weather History Graph

Search for Another Location

Airport or City:

Trip Planner

Search our weather history database for the weather conditions in past years. The results will help you decide how hot, cold, wet, or windy it might be!

Date:

Astronomy

Jan. 12, 2013 Rise Set
Actual Time 7:52 AM CST 4:51 PM CST
Civil Twilight 7:18 AM CST 5:25 PM CST
Nautical Twilight 6:41 AM CST 6:02 PM CST
Astronomical Twilight 6:05 AM CST 6:38 PM CST
Moon 8:05 AM CST (1/12) 6:27 PM CST (1/12)
Length of Visible Light 10h 06m
Length of Day
8h 59m
New Moon, 1% of the Moon is Illuminated
Jan 12
New Moon
Jan 18
First Quarter
Jan 26
Full
Feb 3
Last Quarter
Feb 10
New

Hourly Weather History & Observations

Time (CST) Temp. Windchill Dew Point Humidity Pressure Visibility Wind Dir Wind Speed Gust Speed Precip Events Conditions
12:14 AM 35.6 °F 29.2 °F 33.8 °F 93% 29.33 in 4.0 mi SW 8.1 mph - N/A   Light Drizzle
12:34 AM 33.8 °F 27.7 °F 32.0 °F 93% 29.33 in 5.0 mi SW 6.9 mph - N/A   Overcast
12:54 AM 33.8 °F 26.4 °F 32.0 °F 93% 29.34 in 7.0 mi SW 9.2 mph - N/A   Overcast
1:14 AM 33.8 °F 27.0 °F 32.0 °F 93% 29.35 in 10.0 mi WSW 8.1 mph - N/A   Drizzle
1:34 AM 33.8 °F 27.7 °F 32.0 °F 93% 29.35 in 10.0 mi SW 6.9 mph - N/A   Overcast
1:54 AM 33.8 °F 27.0 °F 32.0 °F 93% 29.36 in 10.0 mi SW 8.1 mph - N/A   Overcast
2:14 AM 32.0 °F 22.5 °F 32.0 °F 100% 29.36 in 10.0 mi SSW 12.7 mph - N/A   Overcast
2:34 AM 33.8 °F 25.3 °F 32.0 °F 93% 29.38 in 10.0 mi SW 11.5 mph - N/A   Overcast
2:54 AM 32.0 °F 21.2 °F 32.0 °F 100% 29.38 in 5.0 mi WSW 16.1 mph 21.9 mph N/A   Light Drizzle
3:14 AM 32.0 °F 23.6 °F 32.0 °F 100% 29.40 in 7.0 mi WSW 10.4 mph 19.6 mph N/A   Light Drizzle
3:34 AM 30.2 °F 19.3 °F 28.4 °F 93% 29.41 in 1.5 mi WSW 15.0 mph 23.0 mph N/A Snow Light Snow
3:54 AM 26.6 °F 14.7 °F 26.6 °F 100% 29.42 in 4.0 mi SW 15.0 mph 23.0 mph N/A Snow Light Snow
4:14 AM 26.6 °F 13.8 °F 26.6 °F 100% 29.44 in 4.0 mi WSW 17.3 mph 23.0 mph N/A Snow Light Snow
4:34 AM 24.8 °F 11.9 °F 23.0 °F 93% 29.46 in 4.0 mi WSW 16.1 mph - N/A Snow Light Snow
4:54 AM 21.2 °F 7.3 °F 21.2 °F 100% 29.48 in 5.0 mi WSW 16.1 mph 21.9 mph N/A   Overcast
5:14 AM 21.2 °F 6.8 °F 19.4 °F 93% 29.50 in 10.0 mi WSW 17.3 mph 21.9 mph N/A   Overcast
5:34 AM 19.4 °F 6.0 °F 17.6 °F 93% 29.53 in 10.0 mi WSW 13.8 mph 23.0 mph N/A   Overcast
5:54 AM 19.4 °F 5.0 °F 17.6 °F 93% 29.54 in 5.0 mi WSW 16.1 mph 21.9 mph N/A   Overcast
6:14 AM 19.4 °F 4.5 °F 15.8 °F 86% 29.56 in 5.0 mi WSW 17.3 mph 24.2 mph N/A   Overcast
6:34 AM 19.4 °F 5.5 °F 14.0 °F 80% 29.58 in 7.0 mi WSW 15.0 mph 21.9 mph N/A   Overcast
6:54 AM 17.6 °F 5.7 °F 14.0 °F 86% 29.60 in 10.0 mi WSW 10.4 mph 18.4 mph N/A   Overcast
7:14 AM 17.6 °F 3.2 °F 14.0 °F 86% 29.62 in 7.0 mi WSW 15.0 mph 21.9 mph N/A Snow Light Snow
7:34 AM 17.6 °F 4.3 °F 12.2 °F 79% 29.64 in 10.0 mi WSW 12.7 mph 21.9 mph N/A Snow Light Snow
7:54 AM 17.6 °F 2.7 °F 12.2 °F 79% 29.66 in 10.0 mi West 16.1 mph 25.3 mph N/A Snow Light Snow
8:14 AM 17.6 °F 3.2 °F 12.2 °F 79% 29.68 in 10.0 mi West 15.0 mph 24.2 mph N/A   Overcast
8:34 AM 17.6 °F 3.2 °F 10.4 °F 73% 29.70 in 10.0 mi WSW 15.0 mph 19.6 mph N/A   Overcast
8:54 AM 14.0 °F -2.5 °F 8.6 °F 79% 29.72 in 10.0 mi West 17.3 mph 21.9 mph N/A Snow Light Snow
9:14 AM 14.0 °F -0.8 °F 8.6 °F 79% 29.74 in 10.0 mi West 13.8 mph 24.2 mph N/A   Scattered Clouds
9:34 AM 14.0 °F 0.5 °F 8.6 °F 79% 29.74 in 10.0 mi West 11.5 mph - N/A   Scattered Clouds
9:54 AM 14.0 °F -0.2 °F 6.8 °F 73% 29.75 in 10.0 mi West 12.7 mph 20.7 mph N/A   Scattered Clouds
10:14 AM 14.0 °F -0.2 °F 6.8 °F 73% 29.78 in 10.0 mi WSW 12.7 mph 18.4 mph N/A   Overcast
10:34 AM 14.0 °F -0.2 °F 6.8 °F 73% 29.79 in 10.0 mi West 12.7 mph 18.4 mph N/A   Overcast
10:54 AM 14.0 °F -0.2 °F 6.8 °F 73% 29.80 in 10.0 mi WSW 12.7 mph 19.6 mph N/A   Overcast
11:14 AM 14.0 °F 0.5 °F 6.8 °F 73% 29.82 in 7.0 mi WSW 11.5 mph 18.4 mph N/A   Overcast
11:54 AM 14.0 °F -0.2 °F 5.0 °F 67% 29.83 in 7.0 mi WSW 12.7 mph 18.4 mph N/A   Overcast
12:14 PM 14.0 °F 0.5 °F 6.8 °F 73% 29.84 in 10.0 mi WSW 11.5 mph - N/A   Overcast
12:34 PM 14.0 °F -1.4 °F 5.0 °F 67% 29.84 in 10.0 mi West 15.0 mph - N/A   Overcast
12:54 PM 14.0 °F -0.8 °F 5.0 °F 67% 29.85 in 10.0 mi WSW 13.8 mph 20.7 mph N/A   Overcast
1:34 PM 14.0 °F 0.5 °F 5.0 °F 67% 29.86 in 10.0 mi West 11.5 mph 19.6 mph N/A   Overcast
1:54 PM 12.2 °F -1.0 °F 3.2 °F 67% 29.87 in 10.0 mi WSW 10.4 mph 18.4 mph N/A   Overcast
2:14 PM 12.2 °F -1.0 °F 3.2 °F 67% 29.89 in 10.0 mi West 10.4 mph - N/A   Overcast
2:34 PM 12.2 °F -3.1 °F 3.2 °F 67% 29.92 in 10.0 mi West 13.8 mph - N/A   Overcast
2:54 PM 12.2 °F -1.0 °F 3.2 °F 67% 29.92 in 10.0 mi West 10.4 mph - N/A   Overcast
3:14 PM 12.2 °F -0.2 °F 3.2 °F 67% 29.92 in 10.0 mi West 9.2 mph - N/A   Overcast
3:34 PM 12.2 °F -1.8 °F 3.2 °F 67% 29.92 in 7.0 mi West 11.5 mph - N/A   Overcast
3:54 PM 12.2 °F -1.0 °F 3.2 °F 67% 29.93 in 10.0 mi West 10.4 mph - N/A   Overcast
4:14 PM 12.2 °F -0.2 °F 3.2 °F 67% 29.94 in 10.0 mi West 9.2 mph - N/A   Overcast
4:34 PM 12.2 °F 1.7 °F 3.2 °F 67% 29.93 in 10.0 mi West 6.9 mph - N/A   Overcast
4:54 PM 12.2 °F -1.0 °F 3.2 °F 67% 29.93 in 10.0 mi West 10.4 mph - N/A   Overcast
5:14 PM 12.2 °F 1.7 °F 3.2 °F 67% 29.95 in 10.0 mi West 6.9 mph - N/A   Overcast
5:34 PM 12.2 °F 0.7 °F 3.2 °F 67% 29.97 in 10.0 mi West 8.1 mph - N/A   Overcast
5:54 PM 12.2 °F -0.2 °F 3.2 °F 67% 29.98 in 10.0 mi West 9.2 mph - N/A   Overcast
6:14 PM 10.4 °F -0.4 °F 1.4 °F 67% 29.98 in 10.0 mi WSW 6.9 mph - N/A   Overcast
6:34 PM 10.4 °F -0.4 °F 1.4 °F 67% 29.99 in 10.0 mi WSW 6.9 mph - N/A   Overcast
7:14 PM 10.4 °F 0.8 °F 1.4 °F 67% 29.98 in 10.0 mi West 5.8 mph - N/A   Overcast
7:34 PM 10.4 °F -1.5 °F 1.4 °F 67% 30.00 in 10.0 mi WSW 8.1 mph - N/A   Overcast
7:54 PM 10.4 °F -1.5 °F 1.4 °F 67% 30.00 in 10.0 mi West 8.1 mph - N/A   Overcast
8:14 PM 10.4 °F -0.4 °F 1.4 °F 67% 30.00 in 10.0 mi West 6.9 mph - N/A   Overcast
8:34 PM 10.4 °F 2.2 °F 3.2 °F 73% 30.02 in 10.0 mi WSW 4.6 mph - N/A   Overcast
8:53 PM 8.6 °F -3.7 °F 1.4 °F 73% 30.01 in 10.0 mi West 8.1 mph - N/A   Overcast
9:14 PM 8.6 °F -4.7 °F 1.4 °F 73% 30.01 in 10.0 mi WNW 9.2 mph - N/A   Overcast
9:34 PM 8.6 °F -4.7 °F -0.4 °F 67% 30.03 in 10.0 mi WNW 9.2 mph - N/A   Overcast
9:54 PM 6.8 °F -5.9 °F -0.4 °F 72% 30.05 in 10.0 mi WNW 8.1 mph - N/A   Overcast
10:14 PM 6.8 °F -5.9 °F -0.4 °F 72% 30.05 in 10.0 mi WNW 8.1 mph - N/A   Overcast
10:34 PM 6.8 °F -3.5 °F -0.4 °F 72% 30.03 in 10.0 mi WNW 5.8 mph - N/A   Scattered Clouds
10:54 PM 6.8 °F -3.5 °F -0.4 °F 72% 30.03 in 10.0 mi NW 5.8 mph - N/A   Mostly Cloudy
11:14 PM 6.8 °F -6.9 °F 1.4 °F 79% 30.03 in 10.0 mi NW 9.2 mph - N/A   Overcast
11:34 PM 6.8 °F -5.9 °F 1.4 °F 79% 30.03 in 10.0 mi NW 8.1 mph - N/A   Overcast
11:54 PM 6.8 °F -3.5 °F 1.4 °F 79% 30.03 in 10.0 mi NW 5.8 mph - N/A   Overcast